Tiempo atmosférico en la estación meteorológica de La Vall de Bianya, Girona (440 m.)



Fecha
DESCASC
Temp. máxima en grados centígrados (hora)
DESCASC
Temp. mínima en grados centígrados (hora)
DESCASC
Temp. media en grados centígrados
DESCASC
Racha de viento máxima en m/sg (hora)
DESCASC
Velocidad máxima media en intervalos de 10 minutos(hora)
DESCASC
Precipitaciones diarias en mm
DESCASC
Precipitaciones de 00:00 a 06:00 en mm
DESCASC
Precipitaciones de 06:00 a 12:00 en mm
DESCASC
Precipitaciones de 12:00 a 18:00 en mm
DESCASC
Precipitaciones de 18:00 a 24:00 en mm
DESCASC
15-11-2018 13.6 (15:10) 11.4 (02:40) 12.5 2.78 (10:20) 1.67 (10:20) 27.2 0 7.8 16.8 2.6
14-11-2018 20 (12:20) 10.4 (07:50) 15.2 5.56 (14:20) 2.5 (16:10) 0 0 0 0 0
13-11-2018 19.8 (13:00) 9.1 (07:50) 14.4 4.72 (13:20) 2.5 (13:20) 0 0 0 0 0
12-11-2018 20 (13:50) 6.7 (07:50) 13.3 5.83 (13:40) 2.78 (13:40) 0 0 0 0 0
11-11-2018 21.6 (14:20) 7.6 (00:00) 14.6 10.28 (14:00) 5.83 (13:20) 0 0 0 0 0
10-11-2018 18.9 (14:30) 4.6 (00:00) 11.7 8.33 (15:00) 4.44 (14:50) 0 0 0 0 0
09-11-2018 16.1 (14:30) 6.2 (00:00) 11.2 2.5 (13:40) 1.67 (13:40) 16.8 9 7.6 0.2 0
08-11-2018 17.4 (13:00) 6.4 (00:00) 11.9 7.5 (17:40) 3.33 (16:00) 0 0 0 0 0
07-11-2018 18 (14:30) 3.8 (00:00) 10.9 8.33 (15:50) 4.44 (13:30) 0 0 0 0 0
06-11-2018 15.1 (14:30) 4.6 (00:00) 9.9 5.28 (13:00) 2.5 (11:30) 0.6 0.4 0.2 0 0
05-11-2018 18.5 (11:30) 9.2 (00:00) 13.8 8.06 (21:20) 2.78 (13:10) 18 0 0 0 18
04-11-2018 20.1 (13:10) 4.4 (00:00) 12.3 2.78 (17:00) 1.67 (17:20) 0 0 0 0 0
03-11-2018 15.7 (15:10) 0.8 (00:00) 8.2 3.61 (17:20) 2.22 (17:20) 0 0 0 0 0
02-11-2018 15.7 (13:40) 4.1 (00:00) 9.9 2.5 (13:10) 1.39 (11:30) 0.2 0 0.2 0 0
01-11-2018 15.3 (13:50) 4.9 (00:00) 10.1 5.28 (14:10) 2.5 (15:00) 3.8 3.8 0 0 0
31-10-2018 10.7 (13:10) 6.4 (00:00) 8.5 6.11 (13:30) 1.94 (05:00) 32 7.6 12.6 9.8 2
30-10-2018 14 (14:30) 0.2 (00:00) 7.1 7.78 (15:40) 3.33 (12:30) 0 0 0 0 0
29-10-2018 8.6 (14:30) 4.6 (00:00) 6.6 4.72 (19:20) 2.78 (19:20) 0 0 0 0 0
28-10-2018 8.6 (16:10) 6.2 (00:00) 7.4 4.72 (13:00) 2.78 (13:00) 5.6 0 3.2 2.4 0
27-10-2018 15.4 (00:00) 7.9 (00:00) 11.6 5.83 (10:00) 3.06 (10:10) 23.8 1.6 13.6 8.4 0.2
26-10-2018 20.5 (13:20) 7.2 (00:00) 13.8 4.72 (19:00) 2.5 (16:40) 0 0 0 0 0
25-10-2018 24.7 (15:30) 5.8 (00:00) 15.3 5 (16:20) 2.5 (17:30) 0 0 0 0 0
24-10-2018 28 (15:30) 5.7 (00:00) 16.8 5.56 (15:10) 3.06 (15:10) 0 0 0 0 0
23-10-2018 22.7 (15:50) 8.2 (00:00) 15.5 4.17 (16:20) 1.94 (16:00) 0.2 0 0.2 0 0
22-10-2018 22.1 (15:30) 7.7 (00:00) 14.9 5.56 (16:40) 3.33 (16:40) 0 0 0 0 0
21-10-2018 24 (16:30) 9.9 (00:00) 16.9 4.72 (17:00) 2.22 (16:50) 0.2 0 0.2 0 0
20-10-2018 22.4 (14:10) 13 (00:00) 17.7 3.89 (16:00) 1.94 (15:50) 0.2 0 0.2 0 0
19-10-2018 21 (15:50) 14.4 (00:00) 17.7 3.33 (16:00) 1.67 (17:30) 0.8 0 0 0 0.8
18-10-2018 18.2 (16:10) 13.9 (00:00) 16.1 4.17 (16:50) 2.22 (16:20) 18.6 0.2 17.6 0.8 0

Gráficas

Temp. máximas Temp. mínimas Temp. medias Precipitaciones Rachas de viento máximas Velocidades máximas media en intervalos de 10 minutos

Datos horarios

Fecha y hora oficial Temperatura (ºC) Velocidad del viento (km/h) Dirección del viento Racha (km/h) Dirección de racha Precipitación (mm) Presión (hPa) Tendencia (hPa) Humedad (%)
2018-11-16 23:00:00 12 0 Calma 5 Sudoeste 0 -- -- 100
2018-11-16 22:00:00 12.1 3 Sudoeste 5 Sudoeste 0.8 -- -- 99
2018-11-16 21:00:00 12.3 0 Calma 4 Oeste 0 -- -- 99
2018-11-16 20:00:00 12.3 0 Calma 5 Oeste 0 -- -- 99
2018-11-16 19:00:00 12.4 0 Calma 2 Sudoeste 0 -- -- 98
2018-11-16 18:00:00 12.6 0 Calma 5 Sudeste 0 -- -- 97
2018-11-16 17:00:00 13 3 Nordeste 6 Nordeste 0 -- -- 95
2018-11-16 16:00:00 13 2 Sur 5 Sudoeste 0 -- -- 95
2018-11-16 15:00:00 13.1 4 Oeste 8 Oeste 0 -- -- 96
2018-11-16 14:00:00 13 4 Sudoeste 8 Nordeste 0 -- -- 97
2018-11-16 13:00:00 13 6 Este 12 Este 0 -- -- 95
2018-11-16 12:00:00 13.5 5 Este 11 Este 0 -- -- 97
2018-11-16 11:00:00 12.6 0 Calma 3 Oeste 0 -- -- 100
2018-11-16 10:00:00 10.7 0 Calma 4 Sudoeste 0 -- -- 100
2018-11-16 09:00:00 9.6 0 Calma 4 Norte 0.2 -- -- 100
2018-11-16 08:00:00 9.7 2 Oeste 4 Sudoeste 0 -- -- 100
2018-11-16 07:00:00 10.2 0 Calma 4 Oeste 0 -- -- 100
2018-11-16 06:00:00 10.3 0 Calma 6 Sudoeste 0 -- -- 100
2018-11-16 05:00:00 10.5 2 Sudoeste 9 Oeste 0 -- -- 100
2018-11-16 04:00:00 10.7 4 Sudoeste 7 Oeste 0 -- -- 100
2018-11-16 03:00:00 10.7 0 Calma 4 Nordeste 0 -- -- 100
2018-11-16 02:00:00 11 0 Calma 6 Sudoeste 0 -- -- 100
2018-11-16 01:00:00 11.3 3 Sudoeste 6 Oeste 0 -- -- 100
2018-11-16 00:00:00 11.9 0 Calma 6 Sudoeste 0 -- -- 100
2018-11-15 23:00:00 12 0 Calma 4 Oeste 1 -- -- 100
2018-11-15 22:00:00 12.1 0 Calma 4 Oeste 0.8 -- -- 100
2018-11-15 21:00:00 12.2 0 Calma 4 Noroeste 0.6 -- -- 100
2018-11-15 20:00:00 12.3 0 Calma 3 Sudoeste 0 -- -- 100
2018-11-15 19:00:00 12.7 2 Sudoeste 10 Este 0.2 -- -- 99
2018-11-15 18:00:00 12.9 4 Este 9 Sudeste 0.8 -- -- 99
2018-11-15 17:00:00 13 0 Calma 5 Este 1.8 -- -- 99
2018-11-15 16:00:00 13.5 0 Calma 4 Oeste 2.4 -- -- 98
2018-11-15 15:00:00 13.5 2 Oeste 5 Sur 4.2 -- -- 99
2018-11-15 14:00:00 13.4 0 Calma 7 Sudoeste 4 -- -- 99
2018-11-15 13:00:00 13.2 5 Oeste 7 Oeste 3.6 -- -- 99
2018-11-15 12:00:00 13 2 Norte 9 Oeste 2.8 -- -- 99
2018-11-15 11:00:00 12.7 3 Noroeste 10 Sudoeste 1.8 -- -- 100
2018-11-15 10:00:00 12.4 0 Calma 7 Noroeste 2.4 -- -- 100
2018-11-15 09:00:00 12.1 2 Sudoeste 5 Oeste 0.2 -- -- 99
2018-11-15 08:00:00 11.9 0 Calma 4 Oeste 0.6 -- -- 99
2018-11-15 07:00:00 11.7 0 Calma 3 Noroeste 0 -- -- 99
2018-11-15 06:00:00 11.6 3 Oeste 6 Sudoeste 0 -- -- 99
2018-11-15 05:00:00 11.5 0 Calma 5 Oeste 0 -- -- 99
2018-11-15 04:00:00 11.4 0 Calma 4 Noroeste 0 -- -- 98
2018-11-15 03:00:00 11.4 4 Sudoeste 8 Sudoeste 0 -- -- 98
2018-11-15 02:00:00 11.6 5 Sudoeste 9 Sudoeste 0 -- -- 97
2018-11-15 01:00:00 12 0 Calma 6 Oeste 0 -- -- 97
2018-11-15 00:00:00 12.2 2 Oeste 5 Oeste 0 -- -- 98
2018-11-14 23:00:00 12.4 0 Calma 8 Sudoeste 0 -- -- 97
2018-11-14 22:00:00 12.7 0 Calma 5 Este 0 -- -- 97
2018-11-14 21:00:00 13 2 Este 4 Sudoeste 0 -- -- 96
2018-11-14 20:00:00 13.8 0 Calma 5 Nordeste 0 -- -- 94
2018-11-14 19:00:00 14.4 2 Este 8 Sudeste 0 -- -- 91
2018-11-14 18:00:00 16 5 Este 12 Este 0 -- -- 86
2018-11-14 17:00:00 17 6 Este 20 Nordeste 0 -- -- 81
2018-11-14 16:00:00 18.2 5 Este 14 Este 0 -- -- 74
2018-11-14 15:00:00 18.3 7 Este 20 Nordeste 0 -- -- 70
2018-11-14 14:00:00 19.1 5 Este 15 Este 0 -- -- 70
2018-11-14 13:00:00 19.8 5 Este 10 Este 0 -- -- 68
2018-11-14 12:00:00 18.7 2 Norte 6 Noroeste 0 -- -- 72
2018-11-14 11:00:00 15.9 0 Calma 3 Sudoeste 0 -- -- 91
2018-11-14 10:00:00 12.7 2 Oeste 4 Oeste 0 -- -- 100
2018-11-14 09:00:00 11.3 0 Calma 2 Oeste 0 -- -- 100
2018-11-14 08:00:00 10.5 0 Calma 2 Noroeste 0 -- -- 100
2018-11-14 07:00:00 10.8 0 Calma 0 Calma 0 -- -- 100
2018-11-14 06:00:00 11.4 0 Calma 3 Oeste 0 -- -- 100
2018-11-14 05:00:00 11.8 0 Calma 3 Oeste 0 -- -- 99
2018-11-14 04:00:00 12.4 0 Calma 3 Noroeste 0 -- -- 99
2018-11-14 03:00:00 12.3 0 Calma 3 Norte 0 -- -- 99
2018-11-14 02:00:00 12.8 0 Calma 4 Oeste 0 -- -- 99
2018-11-14 01:00:00 13 3 Oeste 6 Oeste 0 -- -- 99
2018-11-14 00:00:00 13 0 Calma 2 Sur 0 -- -- 98
2018-11-13 23:00:00 12.9 0 Calma 3 Sudoeste 0 -- -- 98
2018-11-13 22:00:00 12.8 0 Calma 3 Oeste 0 -- -- 97
2018-11-13 21:00:00 13.4 0 Calma 2 Sudeste 0 -- -- 96
2018-11-13 20:00:00 14.3 0 Calma 3 Noroeste 0 -- -- 94
2018-11-13 19:00:00 14.9 0 Calma 3 Nordeste 0 -- -- 90
2018-11-13 18:00:00 15.7 3 Este 5 Este 0 -- -- 86
2018-11-13 17:00:00 17.6 3 Este 9 Nordeste 0 -- -- 78
2018-11-13 16:00:00 18.5 4 Nordeste 10 Sudeste 0 -- -- 74
2018-11-13 15:00:00 19.5 5 Este 13 Este 0 -- -- 71
2018-11-13 14:00:00 19 6 Este 17 Este 0 -- -- 72
2018-11-13 13:00:00 19.8 4 Sudeste 11 Sudeste 0 -- -- 69
2018-11-13 12:00:00 17.3 0 Calma 6 Sudoeste 0 -- -- 79
2018-11-13 11:00:00 14.2 4 Sudoeste 8 Sudoeste 0 -- -- 95
2018-11-13 10:00:00 11 0 Calma 4 Oeste 0 -- -- 100
2018-11-13 09:00:00 9.2 0 Calma 6 Oeste 0 -- -- 100
2018-11-13 08:00:00 9.1 2 Oeste 6 Oeste 0 -- -- 100
2018-11-13 07:00:00 9.4 0 Calma 5 Oeste 0 -- -- 100
2018-11-13 06:00:00 10 0 Calma 4 Oeste 0 -- -- 100
2018-11-13 05:00:00 10.8 0 Calma 4 Oeste 0 -- -- 100
2018-11-13 04:00:00 11.3 0 Calma 4 Oeste 0 -- -- 99
2018-11-13 03:00:00 11.9 3 Sudoeste 9 Sudoeste 0 -- -- 99
2018-11-13 02:00:00 11.7 5 Oeste 8 Oeste 0 -- -- 98
2018-11-13 01:00:00 12.4 2 Oeste 6 Oeste 0 -- -- 99
2018-11-13 00:00:00 12.3 0 Calma -- -- 0 -- -- 99
2018-11-12 23:00:00 12.2 0 Calma 0 Calma 0 -- -- 98
2018-11-12 22:00:00 12.5 0 Calma 0 Calma 0 -- -- 97
2018-11-12 21:00:00 13.2 0 Calma 0 Calma 0 -- -- 96
2018-11-12 20:00:00 14.4 0 Calma 6 Sudeste 0 -- -- 95
2018-11-12 19:00:00 15.3 4 Sudeste 11 Sudeste 0 -- -- 94
2018-11-12 18:00:00 16 5 Sudeste 11 Este 0 -- -- 89
2018-11-12 17:00:00 17 5 Este 17 Este 0 -- -- 82
2018-11-12 16:00:00 18.4 6 Este 14 Nordeste 0 -- -- 72
2018-11-12 15:00:00 19 6 Este 20 Nordeste 0 -- -- 69
2018-11-12 14:00:00 19.9 7 Este 21 Este 0 -- -- 64
2018-11-12 13:00:00 19.8 8 Este 21 Sudeste 0 -- -- 66
2018-11-12 12:00:00 18.4 8 Este 18 Este 0 -- -- 69
2018-11-12 11:00:00 17.2 8 Este 15 Sudeste 0 -- -- 75
2018-11-12 10:00:00 13.6 0 Calma 5 Nordeste 0 -- -- 99
2018-11-12 09:00:00 8.6 0 Calma 6 Noroeste 0 -- -- 100
2018-11-12 08:00:00 6.8 2 Noroeste 4 Noroeste 0 -- -- 100
2018-11-12 07:00:00 7 0 Calma 4 Sudoeste 0 -- -- 100
2018-11-12 06:00:00 7.3 2 Oeste 4 Oeste 0 -- -- 100
2018-11-12 05:00:00 7.8 0 Calma 6 Oeste 0 -- -- 100
2018-11-12 04:00:00 8.1 2 Norte 6 Noroeste 0 -- -- 100
2018-11-12 03:00:00 8.4 2 Nordeste 8 Oeste 0 -- -- 99
2018-11-12 02:00:00 8.7 3 Noroeste 6 Este 0 -- -- 99
2018-11-12 01:00:00 8.6 2 Nordeste 5 Nordeste 0 -- -- 99
2018-11-12 00:00:00 8.8 2 Nordeste 6 Noroeste 0 -- -- 98
2018-11-11 23:00:00 9.1 0 Calma 6 Noroeste 0 -- -- 98
2018-11-11 22:00:00 9.5 0 Calma 4 Oeste 0 -- -- 97
2018-11-11 21:00:00 10.1 0 Calma 4 Noroeste 0 -- -- 95
2018-11-11 20:00:00 11.1 3 Norte 6 Oeste 0 -- -- 92
2018-11-11 19:00:00 12.6 3 Este 10 Oeste 0 -- -- 88
2018-11-11 18:00:00 14.5 2 Sudeste 9 Sur 0 -- -- 81
2018-11-11 17:00:00 17.4 4 Sur 19 Sudoeste 0 -- -- 70
2018-11-11 16:00:00 20.8 8 Sudoeste 28 Sudoeste 0 -- -- 55
2018-11-11 15:00:00 21 16 Sudoeste 35 Sudoeste 0 -- -- 52
2018-11-11 14:00:00 21.3 18 Sudoeste 37 Sudoeste 0 -- -- 51
2018-11-11 13:00:00 21.2 15 Sudoeste 31 Sudoeste 0 -- -- 50
2018-11-11 12:00:00 19.5 14 Sudoeste 32 Sudoeste 0 -- -- 55
2018-11-11 11:00:00 15.3 5 Noroeste 10 Noroeste 0 -- -- 70
2018-11-11 10:00:00 13.7 0 Calma 8 Nordeste 0 -- -- 82
2018-11-11 09:00:00 9.6 4 Oeste 6 Sudoeste 0 -- -- 99
2018-11-11 08:00:00 7.7 3 Oeste 6 Oeste 0 -- -- 99
2018-11-11 07:00:00 7.8 4 Oeste 8 Noroeste 0 -- -- 99
2018-11-11 06:00:00 7.7 0 Calma 3 Norte 0 -- -- 99
2018-11-11 05:00:00 7.8 4 Oeste 10 Oeste 0 -- -- 98
2018-11-11 04:00:00 8.2 0 Calma 5 Oeste 0 -- -- 97
2018-11-11 03:00:00 8.9 0 Calma 7 Sudoeste 0 -- -- 94
2018-11-11 02:00:00 10.6 2 Nordeste 13 Sudeste 0 -- -- 90
2018-11-11 01:00:00 10.2 5 Este 13 Nordeste 0 -- -- 93
2018-11-11 00:00:00 10.8 2 Norte 8 Este 0 -- -- 90
2018-11-10 23:00:00 11 3 Sudeste 7 Nordeste 0 -- -- 89
2018-11-10 22:00:00 12.5 3 Este 11 Este 0 -- -- 83
2018-11-10 21:00:00 12.3 3 Sudeste 8 Sudeste 0 -- -- 86
2018-11-10 20:00:00 12.2 3 Sudoeste 9 Sur 0 -- -- 86
2018-11-10 19:00:00 12.7 2 Sur 5 Sur 0 -- -- 86
2018-11-10 18:00:00 13.1 3 Sur 19 Sudoeste 0 -- -- 83
2018-11-10 17:00:00 15.8 8 Sudoeste 29 Sudoeste 0 -- -- 68
2018-11-10 16:00:00 17.2 13 Sudoeste 30 Sudoeste 0 -- -- 63
2018-11-10 15:00:00 17.6 15 Sur 30 Sudoeste 0 -- -- 61
2018-11-10 14:00:00 17.6 5 Sur 12 Sur 0 -- -- 62
2018-11-10 13:00:00 14.8 2 Sur 13 Norte 0 -- -- 77
2018-11-10 12:00:00 15 3 Sudeste 10 Este 0 -- -- 74
2018-11-10 11:00:00 13 3 Sudeste 6 Sur 0 -- -- 83
2018-11-10 10:00:00 11 2 Sudeste 9 Sudoeste 0 -- -- 99
2018-11-10 09:00:00 7.4 4 Sudoeste 9 Sudoeste 0 -- -- 100
2018-11-10 08:00:00 6.5 2 Oeste 7 Oeste 0 -- -- 100
2018-11-10 07:00:00 5.9 2 Sudoeste 6 Sudoeste 0 -- -- 100
2018-11-10 06:00:00 5.4 4 Oeste 9 Sudoeste 0 -- -- 100
2018-11-10 05:00:00 4.9 3 Oeste 9 Oeste 0 -- -- 100
2018-11-10 04:00:00 4.7 4 Oeste 6 Sudoeste 0 -- -- 100
2018-11-10 03:00:00 5.3 0 Calma 6 Oeste 0 -- -- 100
2018-11-10 02:00:00 6.1 3 Oeste 7 Oeste 0 -- -- 100
2018-11-10 01:00:00 5.7 0 Calma 6 Oeste 0 -- -- 100
2018-11-10 00:00:00 6.2 3 Oeste 7 Oeste 0 -- -- 99
2018-11-09 23:00:00 6.6 0 Calma 3 Sur 0 -- -- 99
2018-11-09 22:00:00 7.6 0 Calma 6 Oeste 0 -- -- 98
2018-11-09 21:00:00 8.3 5 Oeste 9 Sudoeste 0 -- -- 98
2018-11-09 20:00:00 9 0 Calma 4 Oeste 0 -- -- 97
2018-11-09 19:00:00 10.1 0 Calma 4 Nordeste 0 -- -- 94
2018-11-09 18:00:00 11.9 2 Sudoeste 8 Sudoeste 0 -- -- 91
2018-11-09 17:00:00 13.2 2 Sudoeste 5 Sudoeste 0 -- -- 88
2018-11-09 16:00:00 14 0 Calma 6 Sudeste 0 -- -- 85
2018-11-09 15:00:00 15 2 Sudeste 9 Sudoeste 0 -- -- 83
2018-11-09 14:00:00 15.3 3 Sudoeste 9 Sudoeste 0 -- -- 82
2018-11-09 13:00:00 14.8 2 Noroeste 6 Nordeste 0.2 -- -- 81
2018-11-09 12:00:00 12.6 4 Oeste 7 Oeste 0 -- -- 91
2018-11-09 11:00:00 12 0 Calma 4 Noroeste 0 -- -- 91
2018-11-09 10:00:00 11.2 0 Calma 6 Sur 0 -- -- 99
2018-11-09 09:00:00 10.2 0 Calma 8 Sudoeste 0.2 -- -- 100
2018-11-09 08:00:00 10.2 3 Sudoeste 5 Sudoeste 3 -- -- 100
2018-11-09 07:00:00 10.7 0 Calma 6 Noroeste 4.4 -- -- 100
2018-11-09 06:00:00 10.6 4 Oeste 7 Oeste 5.8 -- -- 99
2018-11-09 05:00:00 10.4 2 Sudoeste 5 Oeste 3.2 -- -- 98
2018-11-09 04:00:00 10.3 0 Calma 6 Oeste 0 -- -- 97
2018-11-09 03:00:00 10.2 0 Calma 3 Nordeste 0 -- -- 96
2018-11-09 02:00:00 10.6 0 Calma 6 Oeste 0 -- -- 95
2018-11-09 01:00:00 10.6 0 Calma 7 Este 0 -- -- 93
2018-11-09 00:00:00 10.5 0 Calma 8 Oeste 0 -- -- 93
2018-11-08 23:00:00 10.4 3 Oeste 7 Noroeste 0 -- -- 93
2018-11-08 22:00:00 9.8 3 Oeste 9 Oeste 0 -- -- 94
2018-11-08 21:00:00 9.7 0 Calma 6 Sudoeste 0 -- -- 92
2018-11-08 20:00:00 9.6 0 Calma 5 Nordeste 0 -- -- 90
2018-11-08 19:00:00 11.9 4 Noroeste 18 Sudoeste 0 -- -- 79
2018-11-08 18:00:00 14.1 7 Sudoeste 27 Sudoeste 0 -- -- 69
2018-11-08 17:00:00 14.9 8 Sur 23 Oeste 0 -- -- 66
2018-11-08 16:00:00 15.9 12 Sur 23 Sur 0 -- -- 61
2018-11-08 15:00:00 15.8 5 Sur 17 Sur 0 -- -- 62
2018-11-08 14:00:00 15.4 6 Sur 17 Sudoeste 0 -- -- 64
2018-11-08 13:00:00 17.4 5 Sudoeste 20 Sudoeste 0 -- -- 59
2018-11-08 12:00:00 16.7 8 Oeste 13 Noroeste 0 -- -- 60
2018-11-08 11:00:00 12.6 2 Oeste 5 Oeste 0 -- -- 84
2018-11-08 10:00:00 11.2 0 Calma 4 Oeste 0 -- -- 89
2018-11-08 09:00:00 9.7 2 Sudeste 4 Sudeste 0 -- -- 100
2018-11-08 08:00:00 7.7 0 Calma 3 Sudoeste 0 -- -- 100
2018-11-08 07:00:00 7.5 0 Calma 4 Oeste 0 -- -- 100
2018-11-08 06:00:00 7.1 0 Calma 3 Noroeste 0 -- -- 100
2018-11-08 05:00:00 6.8 0 Calma 3 Oeste 0 -- -- 100
2018-11-08 04:00:00 6.6 2 Oeste 4 Oeste 0 -- -- 100
2018-11-08 03:00:00 6.5 0 Calma 3 Nordeste 0 -- -- 99
2018-11-08 02:00:00 7 0 Calma 4 Oeste 0 -- -- 99
2018-11-08 01:00:00 7.4 2 Oeste 4 Oeste 0 -- -- 98
2018-11-08 00:00:00 7.9 0 Calma 3 Oeste 0 -- -- 97
2018-11-07 23:00:00 8.9 0 Calma 5 Noroeste 0 -- -- 95
2018-11-07 22:00:00 9.7 0 Calma 3 Sudoeste 0 -- -- 95
2018-11-07 21:00:00 10.5 0 Calma 6 Oeste 0 -- -- 92
2018-11-07 20:00:00 10.9 0 Calma 6 Oeste 0 -- -- 91
2018-11-07 19:00:00 11.3 0 Calma 8 Sudoeste 0 -- -- 87
2018-11-07 18:00:00 12.6 2 Sudoeste 9 Noroeste 0 -- -- 82
2018-11-07 17:00:00 15.4 2 Sur 22 Sudoeste 0 -- -- 71
2018-11-07 16:00:00 17.3 15 Sudoeste 30 Sudoeste 0 -- -- 57
2018-11-07 15:00:00 17.7 13 Sudoeste 27 Sudoeste 0 -- -- 56
2018-11-07 14:00:00 17.6 12 Oeste 29 Oeste 0 -- -- 57
2018-11-07 13:00:00 16.4 10 Oeste 21 Sudoeste 0 -- -- 59
2018-11-07 12:00:00 15.5 6 Oeste 16 Oeste 0 -- -- 61
2018-11-07 11:00:00 13 6 Sudoeste 27 Oeste 0 -- -- 71
2018-11-07 10:00:00 11.1 6 Sudoeste 22 Oeste 0 -- -- 73
2018-11-07 09:00:00 9.3 13 Sudoeste 23 Oeste 0 -- -- 80
2018-11-07 08:00:00 7.1 6 Sudoeste 15 Sudoeste 0 -- -- 100
2018-11-07 07:00:00 4.4 0 Calma 5 Oeste 0 -- -- 100
2018-11-07 06:00:00 4.3 0 Calma 7 Oeste 0 -- -- 100
2018-11-07 05:00:00 4.1 3 Oeste 7 Oeste 0 -- -- 100
2018-11-07 04:00:00 4.4 0 Calma 12 Oeste 0 -- -- 100
2018-11-07 03:00:00 4.1 2 Sudoeste 5 Norte 0 -- -- 100
2018-11-07 02:00:00 4 0 Calma 7 Este 0 -- -- 100
2018-11-07 01:00:00 4.1 0 Calma 4 Noroeste 0 -- -- 99
2018-11-07 00:00:00 4.6 2 Oeste 5 Oeste 0 -- -- 99
2018-11-06 23:00:00 5.2 0 Calma 7 Oeste 0 -- -- 98
2018-11-06 22:00:00 5.6 2 Este 7 Sudoeste 0 -- -- 98
2018-11-06 21:00:00 6.1 3 Sudoeste 6 Oeste 0 -- -- 97
2018-11-06 20:00:00 6.8 0 Calma 6 Oeste 0 -- -- 95
2018-11-06 19:00:00 7.9 2 Oeste 6 Oeste 0 -- -- 92
2018-11-06 18:00:00 9.4 0 Calma 5 Noroeste 0 -- -- 87
2018-11-06 17:00:00 11.4 0 Calma 5 Sudeste 0 -- -- 80
2018-11-06 16:00:00 12.6 3 Sudeste 9 Sudoeste 0 -- -- 74
2018-11-06 15:00:00 13.8 3 Sudeste 8 Oeste 0 -- -- 69
2018-11-06 14:00:00 14.6 4 Sudoeste 17 Oeste 0 -- -- 56
2018-11-06 13:00:00 14.4 7 Sudoeste 19 Sudoeste 0 -- -- 61
2018-11-06 12:00:00 13.1 9 Sudoeste 18 Sudoeste 0 -- -- 67
2018-11-06 11:00:00 11.7 2 Sur 5 Sudoeste 0 -- -- 85
2018-11-06 10:00:00 10.2 2 Sur 4 Sur 0 -- -- 91
2018-11-06 09:00:00 7.3 5 Oeste 8 Oeste 0.2 -- -- 100
2018-11-06 08:00:00 5.6 0 Calma 5 Noroeste 0 -- -- 100
2018-11-06 07:00:00 6.3 0 Calma 5 Sudoeste 0 -- -- 100
2018-11-06 06:00:00 7.6 2 Nordeste 8 Oeste 0 -- -- 100
2018-11-06 05:00:00 8.5 2 Este 6 Oeste 0 -- -- 99
2018-11-06 04:00:00 9.6 2 Oeste 6 Oeste 0.2 -- -- 99
2018-11-06 03:00:00 10 0 Calma 6 Sudoeste 0 -- -- 99
2018-11-06 02:00:00 10.3 0 Calma 10 Oeste 0 -- -- 98
2018-11-06 01:00:00 10.7 4 Oeste 7 Sudoeste 0.2 -- -- 97
2018-11-06 00:00:00 11 2 Sudeste 10 Sudoeste 0 -- -- 95
2018-11-05 23:00:00 12.4 6 Sudoeste 11 Oeste 2.2 -- -- 95
2018-11-05 22:00:00 12 2 Este 29 Sudoeste 6.6 -- -- 99
2018-11-05 21:00:00 12.2 2 Norte 8 Oeste 8.8 -- -- 96
2018-11-05 20:00:00 13 4 Este 10 Sudeste 0.4 -- -- 90
2018-11-05 19:00:00 13.9 5 Este 14 Sudeste 0 -- -- 79
2018-11-05 18:00:00 14 4 Este 9 Nordeste 0 -- -- 82
2018-11-05 17:00:00 15.1 2 Norte 14 Este 0 -- -- 75
2018-11-05 16:00:00 15.7 4 Sudeste 13 Sudeste 0 -- -- 68
2018-11-05 15:00:00 16.4 4 Sudeste 15 Nordeste 0 -- -- 56
2018-11-05 14:00:00 16.5 8 Nordeste 22 Nordeste 0 -- -- 69
2018-11-05 13:00:00 17.8 8 Nordeste 20 Nordeste 0 -- -- 66
2018-11-05 12:00:00 18.2 6 Este 11 Nordeste 0 -- -- 66
2018-11-05 11:00:00 16.6 3 Este 8 Este 0 -- -- 77
2018-11-05 10:00:00 12.6 0 Calma 4 Sudoeste 0 -- -- 100
2018-11-05 09:00:00 10.4 0 Calma 5 Oeste 0 -- -- 100
2018-11-05 08:00:00 9.5 0 Calma 6 Oeste 0 -- -- 100
2018-11-05 07:00:00 9.3 0 Calma 4 Este 0 -- -- 100
2018-11-05 06:00:00 9.7 2 Este 7 Noroeste 0 -- -- 100
2018-11-05 05:00:00 9.5 0 Calma 4 Oeste 0 -- -- 100
2018-11-05 04:00:00 9.7 0 Calma 8 Oeste 0 -- -- 100
2018-11-05 03:00:00 10 2 Noroeste 4 Sudoeste 0 -- -- 99
2018-11-05 02:00:00 10.6 4 Oeste 6 Oeste 0 -- -- 99
2018-11-05 01:00:00 11.3 0 Calma 4 Noroeste 0 -- -- 99
2018-11-05 00:00:00 12 0 Calma 5 Oeste 0 -- -- 98
2018-11-04 23:00:00 12.5 0 Calma 6 Sudoeste 0 -- -- 97
2018-11-04 22:00:00 12.7 3 Sudoeste 9 Oeste 0 -- -- 97
2018-11-04 21:00:00 12.8 0 Calma 2 Sudeste 0 -- -- 96
2018-11-04 20:00:00 13.2 0 Calma 5 Oeste 0 -- -- 94
2018-11-04 19:00:00 13.7 0 Calma 6 Sudoeste 0 -- -- 91
2018-11-04 18:00:00 14.9 4 Este 10 Sudeste 0 -- -- 83
2018-11-04 17:00:00 15.3 4 Este 10 Este 0 -- -- 85
2018-11-04 16:00:00 15.6 0 Calma 3 Sur 0 -- -- 84
2018-11-04 15:00:00 16.3 0 Calma 4 Sudeste 0 -- -- 80
2018-11-04 14:00:00 17.5 2 Sudeste 6 Nordeste 0 -- -- 75
2018-11-04 13:00:00 19.6 2 Sur 4 Oeste 0 -- -- 68
2018-11-04 12:00:00 14.7 0 Calma 8 Sudoeste 0 -- -- 82
2018-11-04 11:00:00 10.7 3 Oeste 6 Oeste 0 -- -- 100
2018-11-04 10:00:00 9.1 4 Oeste 6 Oeste 0 -- -- 100
2018-11-04 09:00:00 7.6 0 Calma 6 Oeste 0 -- -- 100
2018-11-04 08:00:00 5.8 3 Oeste 5 Oeste 0 -- -- 100
2018-11-04 07:00:00 4.5 0 Calma 4 Oeste 0 -- -- 100
2018-11-04 06:00:00 4.7 0 Calma 4 Oeste 0 -- -- 100
2018-11-04 05:00:00 5 0 Calma 8 Oeste 0 -- -- 100
2018-11-04 04:00:00 5.2 0 Calma 6 Oeste 0 -- -- 99
2018-11-04 03:00:00 5.4 3 Oeste 5 Oeste 0 -- -- 99
2018-11-04 02:00:00 5.9 0 Calma 4 Sudoeste 0 -- -- 98
2018-11-04 01:00:00 6.9 0 Calma 3 Oeste 0 -- -- 97
2018-11-04 00:00:00 7.8 0 Calma 4 Oeste 0 -- -- 95
2018-11-03 23:00:00 9.3 0 Calma 4 Oeste 0 -- -- 92
2018-11-03 22:00:00 9.9 0 Calma 6 Sudoeste 0 -- -- 90
2018-11-03 21:00:00 9.9 0 Calma 5 Oeste 0 -- -- 88
2018-11-03 20:00:00 10.3 0 Calma 10 Oeste 0 -- -- 84
2018-11-03 19:00:00 10.3 4 Oeste 7 Sudoeste 0 -- -- 82
2018-11-03 18:00:00 10.9 3 Sudoeste 13 Sudoeste 0 -- -- 77
2018-11-03 17:00:00 12.7 8 Sudoeste 12 Sudoeste 0 -- -- 66
2018-11-03 16:00:00 14.1 3 Sudeste 10 Sudeste 0 -- -- 58
2018-11-03 15:00:00 15 3 Sudeste 8 Sudeste 0 -- -- 54
2018-11-03 14:00:00 14.8 3 Sur 6 Sudeste 0 -- -- 54
2018-11-03 13:00:00 14.5 3 Sur 6 Sudoeste 0 -- -- 57
2018-11-03 12:00:00 12.8 3 Sudoeste 6 Sudoeste 0 -- -- 66
2018-11-03 11:00:00 10.2 2 Sudeste 6 Sudoeste 0 -- -- 79
2018-11-03 10:00:00 7.2 2 Sudoeste 6 Oeste 0 -- -- 98
2018-11-03 09:00:00 3.6 0 Calma 4 Sudoeste 0 -- -- 100
2018-11-03 08:00:00 0.8 0 Calma 6 Oeste 0 -- -- 100
2018-11-03 07:00:00 1 2 Noroeste 6 Noroeste 0 -- -- 100
2018-11-03 06:00:00 1.2 0 Calma 4 Nordeste 0 -- -- 100
2018-11-03 05:00:00 2.2 2 Oeste 5 Noroeste 0 -- -- 100
2018-11-03 04:00:00 2.9 2 Noroeste 7 Sudoeste 0 -- -- 100
2018-11-03 03:00:00 3.5 0 Calma 6 Noroeste 0 -- -- 100
2018-11-03 02:00:00 3.7 4 Sudoeste 6 Sudoeste 0 -- -- 100
2018-11-03 01:00:00 3.9 0 Calma 6 Oeste 0 -- -- 100
2018-11-03 00:00:00 4.5 3 Noroeste 5 Norte 0 -- -- 99
2018-11-02 23:00:00 5.1 0 Calma 6 Noroeste 0 -- -- 98
2018-11-02 22:00:00 5.9 3 Oeste 7 Oeste 0 -- -- 98
2018-11-02 21:00:00 6.6 0 Calma 7 Norte 0 -- -- 97
2018-11-02 20:00:00 7.5 2 Sudoeste 5 Noroeste 0 -- -- 96
2018-11-02 19:00:00 8.7 0 Calma 5 Oeste 0 -- -- 93
2018-11-02 18:00:00 10.5 3 Sudoeste 8 Sudoeste 0 -- -- 85
2018-11-02 17:00:00 12.5 2 Sudoeste 5 Sudoeste 0 -- -- 79
2018-11-02 16:00:00 13.6 3 Sur 6 Sur 0 -- -- 75
2018-11-02 15:00:00 14.1 2 Sudeste 4 Sudeste 0 -- -- 70
2018-11-02 14:00:00 15.2 2 Sudeste 9 Oeste 0 -- -- 70
2018-11-02 13:00:00 14.3 4 Sudoeste 8 Sudoeste 0 -- -- 71
2018-11-02 12:00:00 11 4 Oeste 8 Oeste 0 -- -- 98
2018-11-02 11:00:00 8.2 0 Calma 7 Oeste 0 -- -- 100
2018-11-02 10:00:00 6.5 0 Calma 4 Noroeste 0 -- -- 100
2018-11-02 09:00:00 5.2 0 Calma 4 Noroeste 0 -- -- 100
2018-11-02 08:00:00 4.4 0 Calma 4 Noroeste 0 -- -- 100
2018-11-02 07:00:00 4.2 2 Oeste 5 Noroeste 0.2 -- -- 100
2018-11-02 06:00:00 4.4 0 Calma 5 Oeste 0 -- -- 100
2018-11-02 05:00:00 4.9 3 Oeste 6 Oeste 0 -- -- 100
2018-11-02 04:00:00 5.3 3 Oeste 5 Oeste 0 -- -- 100
2018-11-02 03:00:00 5.2 2 Oeste 5 Oeste 0 -- -- 100
2018-11-02 02:00:00 5.3 3 Sudoeste 6 Noroeste 0 -- -- 100
2018-11-02 01:00:00 5.5 3 Sudoeste 4 Oeste 0 -- -- 100
2018-11-02 00:00:00 6 0 Calma 3 Oeste 0 -- -- 100
2018-11-01 23:00:00 6.3 0 Calma 4 Sudoeste 0 -- -- 100
2018-11-01 22:00:00 6.7 0 Calma 3 Oeste 0 -- -- 99
2018-11-01 21:00:00 7.3 0 Calma 4 Este 0 -- -- 98
2018-11-01 20:00:00 8.3 0 Calma 2 Sur 0 -- -- 96
2018-11-01 19:00:00 9.6 0 Calma 3 Sudoeste 0 -- -- 93
2018-11-01 18:00:00 11.1 0 Calma 3 Sur 0 -- -- 90
2018-11-01 17:00:00 12.5 2 Sudeste 12 Este 0 -- -- 84
2018-11-01 16:00:00 13.6 8 Este 16 Este 0 -- -- 70
2018-11-01 15:00:00 14.9 9 Este 19 Este 0 -- -- 69
2018-11-01 14:00:00 15.2 6 Este 15 Este 0 -- -- 66
2018-11-01 13:00:00 14.1 3 Sudeste 5 Sur 0 -- -- 79
2018-11-01 12:00:00 12.8 3 Sudeste 5 Sudeste 0 -- -- 88
2018-11-01 11:00:00 11.4 2 Sudeste 4 Sudeste 0 -- -- 90
2018-11-01 10:00:00 10.2 2 Sur 5 Sudeste 0 -- -- 89
2018-11-01 09:00:00 8.9 0 Calma 6 Sudoeste 0 -- -- 100
2018-11-01 08:00:00 6.2 2 Sudoeste 6 Sudeste 0 -- -- 100
2018-11-01 07:00:00 6.5 2 Nordeste 4 Nordeste 0 -- -- 100
2018-11-01 06:00:00 6.5 2 Este 5 Noroeste 0.2 -- -- 100
2018-11-01 05:00:00 6.3 2 Oeste 4 Oeste 1.4 -- -- 100
2018-11-01 04:00:00 6.1 3 Oeste 12 Sudoeste 1.4 -- -- 100
2018-11-01 03:00:00 5.7 3 Noroeste 6 Oeste 0.8 -- -- 100
2018-11-01 02:00:00 5.3 2 Noroeste 6 Oeste 0 -- -- 100
2018-11-01 01:00:00 5.1 0 Calma 4 Oeste 0 -- -- 98
2018-11-01 00:00:00 6.4 0 Calma 10 Sudoeste 0 -- -- 97
2018-10-31 23:00:00 7.8 2 Sur 11 Oeste 0.2 -- -- 99
2018-10-31 22:00:00 7.8 4 Sudoeste 7 Sudoeste 0.2 -- -- 99
2018-10-31 21:00:00 8 3 Este 6 Sudoeste 0.8 -- -- 99
2018-10-31 20:00:00 8.2 3 Sudoeste 7 Oeste 0.4 -- -- 98
2018-10-31 19:00:00 8.8 0 Calma 8 Oeste 0.4 -- -- 97
2018-10-31 18:00:00 9.5 2 Sudoeste 5 Sur 0 -- -- 99
2018-10-31 17:00:00 9.9 0 Calma 10 Nordeste 2.8 -- -- 98
2018-10-31 16:00:00 10.1 6 Este 15 Nordeste 2.2 -- -- 97
2018-10-31 15:00:00 10.4 2 Sudeste 6 Sudoeste 1 -- -- 97
2018-10-31 14:00:00 10.6 0 Calma 22 Sudoeste 3.4 -- -- 97
2018-10-31 13:00:00 10.5 0 Calma 7 Sudoeste 0.4 -- -- 99
2018-10-31 12:00:00 10 3 Nordeste 6 Nordeste 3.6 -- -- 100
2018-10-31 11:00:00 9.7 0 Calma 10 Nordeste 4.8 -- -- 100
2018-10-31 10:00:00 9.5 0 Calma 10 Sudoeste 0.4 -- -- 100
2018-10-31 09:00:00 9.1 0 Calma 9 Sudoeste 1.4 -- -- 100
2018-10-31 08:00:00 8.9 2 Sudoeste 13 Oeste 2 -- -- 99
2018-10-31 07:00:00 8.9 2 Sur 9 Nordeste 0.4 -- -- 99
2018-10-31 06:00:00 8.9 3 Nordeste 16 Norte 3 -- -- 98
2018-10-31 05:00:00 8.9 7 Sur 18 Sudoeste 4.2 -- -- 98
2018-10-31 04:00:00 8.1 3 Este 6 Este 0.2 -- -- 99
2018-10-31 03:00:00 8.2 3 Oeste 9 Sudoeste 0.2 -- -- 98
2018-10-31 02:00:00 7.9 0 Calma 5 Oeste 0 -- -- 97
2018-10-31 01:00:00 7.6 2 Sudoeste 4 Oeste 0 -- -- 94
2018-10-31 00:00:00 7.3 2 Oeste 6 Oeste 0 -- -- 94
2018-10-30 23:00:00 6.5 0 Calma 4 Sudoeste 0 -- -- 95
2018-10-30 22:00:00 5.9 3 Oeste 7 Sudoeste 0 -- -- 94
2018-10-30 21:00:00 6.4 0 Calma 5 Noroeste 0 -- -- 91
2018-10-30 20:00:00 6.8 0 Calma 8 Oeste 0 -- -- 89
2018-10-30 19:00:00 7.7 0 Calma 10 Sur 0 -- -- 82
2018-10-30 18:00:00 10.3 5 Sur 12 Sudeste 0 -- -- 60
2018-10-30 17:00:00 11.6 4 Sur 12 Sudoeste 0 -- -- 59
2018-10-30 16:00:00 12.8 5 Sudoeste 28 Oeste 0 -- -- 51
2018-10-30 15:00:00 13.5 4 Sudoeste 14 Sudoeste 0 -- -- 52
2018-10-30 14:00:00 12.7 6 Sur 26 Oeste 0 -- -- 51
2018-10-30 13:00:00 12.9 8 Sur 25 Sudeste 0 -- -- 53
2018-10-30 12:00:00 11.7 5 Sur 10 Sudoeste 0 -- -- 54
2018-10-30 11:00:00 8.8 2 Sur 5 Oeste 0 -- -- 76
2018-10-30 10:00:00 6.4 2 Sur 4 Sudeste 0 -- -- 91
2018-10-30 09:00:00 2.5 3 Sudoeste 5 Sudoeste 0 -- -- 100
2018-10-30 08:00:00 0.2 0 Calma 6 Noroeste 0 -- -- 100
2018-10-30 07:00:00 0.5 4 Sudoeste 8 Sudoeste 0 -- -- 100
2018-10-30 06:00:00 0.9 0 Calma 6 Sudeste 0 -- -- 100
2018-10-30 05:00:00 1.4 0 Calma 4 Oeste 0 -- -- 100
2018-10-30 04:00:00 2.1 4 Oeste 6 Oeste 0 -- -- 100
2018-10-30 03:00:00 2.6 2 Nordeste 4 Nordeste 0 -- -- 100
2018-10-30 02:00:00 2.8 0 Calma 4 Sudoeste 0 -- -- 99
2018-10-30 01:00:00 3.6 0 Calma 2 Sur 0 -- -- 98
2018-10-30 00:00:00 4.6 0 Calma 6 Sudoeste 0 -- -- 97
2018-10-29 23:00:00 5.1 0 Calma 4 Oeste 0 -- -- 96
2018-10-29 22:00:00 6.2 2 Este 4 Nordeste 0 -- -- 96
2018-10-29 21:00:00 6.4 0 Calma 9 Sudeste 0 -- -- 94
2018-10-29 20:00:00 6.8 5 Este 17 Sudeste 0 -- -- 93
2018-10-29 19:00:00 6.4 6 Este 12 Nordeste 0 -- -- 91
2018-10-29 18:00:00 6.2 0 Calma 4 Sudeste 0 -- -- 89
2018-10-29 17:00:00 8.2 3 Sudeste 8 Nordeste 0 -- -- 80
2018-10-29 16:00:00 8.3 4 Sur 11 Sudeste 0 -- -- 73
2018-10-29 15:00:00 8.5 4 Sudeste 16 Sur 0 -- -- 71
2018-10-29 14:00:00 8.4 2 Nordeste 8 Nordeste 0 -- -- 77
2018-10-29 13:00:00 8.2 0 Calma 10 Sudeste 0 -- -- 77
2018-10-29 12:00:00 7.7 3 Este 5 Este 0 -- -- 85
2018-10-29 11:00:00 6.8 0 Calma 4 Sudeste 0 -- -- 95
2018-10-29 10:00:00 6.1 0 Calma 6 Oeste 0 -- -- 98
2018-10-29 09:00:00 5.7 0 Calma 6 Sudoeste 0 -- -- 99
2018-10-29 08:00:00 5.4 2 Oeste 5 Oeste 0 -- -- 100
2018-10-29 07:00:00 5.4 0 Calma 4 Noroeste 0 -- -- 99
2018-10-29 06:00:00 5.4 0 Calma 7 Sudoeste 0 -- -- 99
2018-10-29 05:00:00 5.7 2 Sudoeste 4 Oeste 0 -- -- 99
2018-10-29 04:00:00 5.9 0 Calma 5 Sur 0 -- -- 98
2018-10-29 03:00:00 6.1 0 Calma 8 Oeste 0 -- -- 98
2018-10-29 02:00:00 6.2 0 Calma 7 Nordeste 0 -- -- 99
2018-10-29 01:00:00 6.3 0 Calma 4 Sudoeste 0 -- -- 99
2018-10-29 00:00:00 6.2 0 Calma 8 Este 0 -- -- 98
2018-10-28 23:00:00 6.2 0 Calma 5 Sudoeste 0 -- -- 98
2018-10-28 22:00:00 6.4 4 Sudeste 13 Sudeste 0 -- -- 97
2018-10-28 21:00:00 6.5 4 Este 12 Sudeste 0 -- -- 98
2018-10-28 20:00:00 7.1 5 Este 12 Sudeste 0 -- -- 98
2018-10-28 19:00:00 7.3 6 Sudeste 15 Este 0 -- -- 96
2018-10-28 18:00:00 7.7 0 Calma 6 Sudoeste 0 -- -- 94
2018-10-28 17:00:00 8.2 0 Calma 8 Oeste 0 -- -- 89
2018-10-28 16:00:00 8.5 4 Oeste 8 Oeste 0 -- -- 86
2018-10-28 15:00:00 7.7 5 Nordeste 10 Este 0 -- -- 91
2018-10-28 14:00:00 7 7 Este 14 Nordeste 0.4 -- -- 95
2018-10-28 13:00:00 7.3 10 Este 17 Este 2 -- -- 95
2018-10-28 12:00:00 7.5 3 Nordeste 4 Nordeste 1.2 -- -- 95
2018-10-28 11:00:00 7.4 2 Sudeste 8 Sudoeste 0.8 -- -- 97
2018-10-28 10:00:00 7.6 0 Calma 4 Sudeste 0.2 -- -- 99
2018-10-28 09:00:00 7.6 0 Calma 4 Oeste 1 -- -- 99
2018-10-28 08:00:00 7.5 3 Noroeste 5 Sudoeste 0 -- -- 100
2018-10-28 07:00:00 7.3 3 Sudoeste 4 Sudoeste 0 -- -- 99
2018-10-28 06:00:00 7.1 2 Norte 5 Norte 0 -- -- 99
2018-10-28 05:00:00 7.3 0 Calma 3 Oeste 0 -- -- 98
2018-10-28 04:00:00 7.6 0 Calma 4 Este 0 -- -- 97
2018-10-28 03:00:00 7.6 0 Calma 5 Oeste 0 -- -- 97
2018-10-28 02:00:00 7.5 2 Este 8 Oeste 0 -- -- 96
2018-10-28 01:00:00 7.5 2 Sudeste 4 Sudoeste 0 -- -- 97
2018-10-28 00:00:00 7.9 0 Calma 8 Este 0 -- -- 95
2018-10-27 23:00:00 8.4 3 Sudeste 8 Nordeste 0 -- -- 92
2018-10-27 22:00:00 8.8 3 Este 8 Sudeste 0 -- -- 95
2018-10-27 21:00:00 8.9 4 Este 9 Sudeste 0 -- -- 97
2018-10-27 20:00:00 9.1 2 Sudeste 5 Este 0 -- -- 98
2018-10-27 19:00:00 9.4 0 Calma 5 Noroeste 0.2 -- -- 96
2018-10-27 18:00:00 10 2 Norte 5 Norte 0.6 -- -- 95
2018-10-27 17:00:00 10 0 Calma 5 Sudoeste 0.6 -- -- 93
2018-10-27 16:00:00 10.3 2 Sudoeste 6 Sudoeste 0.8 -- -- 95
2018-10-27 15:00:00 10.3 0 Calma 6 Sudeste 1.2 -- -- 96
2018-10-27 14:00:00 9.9 3 Sudeste 10 Sudeste 1.6 -- -- 96
2018-10-27 13:00:00 10 3 Nordeste 17 Sudeste 3.6 -- -- 97
2018-10-27 12:00:00 10.3 9 Este 17 Este 1.6 -- -- 95
2018-10-27 11:00:00 10.8 7 Este 20 Este 4.2 -- -- 96
2018-10-27 10:00:00 11.9 9 Este 21 Este 5.8 -- -- 97
2018-10-27 09:00:00 12.8 5 Este 12 Sudeste 1.2 -- -- 99
2018-10-27 08:00:00 12.7 0 Calma 5 Oeste 0.2 -- -- 99
2018-10-27 07:00:00 12.8 0 Calma 4 Sudoeste 0.6 -- -- 98
2018-10-27 06:00:00 12.9 0 Calma 5 Sudoeste 0.2 -- -- 98
2018-10-27 05:00:00 12.9 0 Calma 8 Oeste 0 -- -- 97
2018-10-27 04:00:00 13.1 0 Calma 4 Sudoeste 0 -- -- 97
2018-10-27 03:00:00 13.6 0 Calma 5 Sudeste 0.2 -- -- 96
2018-10-27 02:00:00 15 0 Calma 5 Sudeste 1.2 -- -- 98
2018-10-27 01:00:00 15.1 0 Calma 5 Este 0 -- -- 97
2018-10-27 00:00:00 15.4 2 Nordeste 10 Este 0 -- -- 95
2018-10-26 23:00:00 15.5 5 Este 10 Este 0 -- -- 95
2018-10-26 22:00:00 15.7 5 Sudeste 15 Este 0 -- -- 94
2018-10-26 21:00:00 16.1 4 Este 12 Sudeste 0 -- -- 92
2018-10-26 20:00:00 16.3 6 Sudeste 15 Este 0 -- -- 91
2018-10-26 19:00:00 16.6 9 Sudeste 17 Sudeste 0 -- -- 90
2018-10-26 18:00:00 17.9 9 Este 15 Sudeste 0 -- -- 82
2018-10-26 17:00:00 19.4 7 Este 16 Este 0 -- -- 76
2018-10-26 16:00:00 19.4 7 Este 16 Este 0 -- -- 78
2018-10-26 15:00:00 19.4 7 Este 15 Este 0 -- -- 78
2018-10-26 14:00:00 19.9 6 Este 13 Este 0 -- -- 74
2018-10-26 13:00:00 19.5 3 Sudeste 8 Sudeste 0 -- -- 69
2018-10-26 12:00:00 17.9 2 Sudeste 7 Este 0 -- -- 73
2018-10-26 11:00:00 14.6 0 Calma 4 Noroeste 0 -- -- 95
2018-10-26 10:00:00 10.2 0 Calma 4 Oeste 0 -- -- 100
2018-10-26 09:00:00 7.5 0 Calma 3 Sudoeste 0 -- -- 100
2018-10-26 08:00:00 7.3 0 Calma 2 Oeste 0 -- -- 100
2018-10-26 07:00:00 7.4 0 Calma 2 Sur 0 -- -- 100
2018-10-26 06:00:00 7.7 0 Calma 2 Sudoeste 0 -- -- 100
2018-10-26 05:00:00 8.1 2 Oeste 4 Oeste 0 -- -- 100
2018-10-26 04:00:00 8.5 2 Oeste 4 Oeste 0 -- -- 100
2018-10-26 03:00:00 8.9 0 Calma 2 Noroeste 0 -- -- 100
2018-10-26 02:00:00 9.6 0 Calma 4 Oeste 0 -- -- 99
2018-10-26 01:00:00 10.2 2 Oeste 4 Noroeste 0 -- -- 99
2018-10-26 00:00:00 10.9 0 Calma 4 Oeste 0 -- -- 97
2018-10-25 23:00:00 11.9 0 Calma 5 Oeste 0 -- -- 96
2018-10-25 22:00:00 13 3 Oeste 4 Oeste 0 -- -- 96
2018-10-25 21:00:00 13.9 0 Calma 3 Oeste 0 -- -- 94
2018-10-25 20:00:00 15.9 0 Calma 6 Sudoeste 0 -- -- 87
2018-10-25 19:00:00 18.2 3 Oeste 15 Sudeste 0 -- -- 79
2018-10-25 18:00:00 21.3 6 Sudeste 18 Sudeste 0 -- -- 65
2018-10-25 17:00:00 23.2 6 Este 18 Sudeste 0 -- -- 59
2018-10-25 16:00:00 24.2 6 Este 17 Este 0 -- -- 53
2018-10-25 15:00:00 23.1 4 Sudeste 8 Este 0 -- -- 55
2018-10-25 14:00:00 23 2 Sur 3 Sudeste 0 -- -- 56
2018-10-25 13:00:00 20.7 2 Sur 3 Sur 0 -- -- 61
2018-10-25 12:00:00 18.7 0 Calma 4 Sudoeste 0 -- -- 64
2018-10-25 11:00:00 15 0 Calma 3 Sudoeste 0 -- -- 78
2018-10-25 10:00:00 10.2 0 Calma 3 Oeste 0 -- -- 100
2018-10-25 09:00:00 6.1 0 Calma 3 Oeste 0 -- -- 100
2018-10-25 08:00:00 5.9 0 Calma 2 Oeste 0 -- -- 100
2018-10-25 07:00:00 6.3 0 Calma 3 Noroeste 0 -- -- 100
2018-10-25 06:00:00 6.6 0 Calma 3 Oeste 0 -- -- 99
2018-10-25 05:00:00 7.1 0 Calma 4 Noroeste 0 -- -- 99
2018-10-25 04:00:00 7.6 0 Calma 3 Oeste 0 -- -- 98
2018-10-25 03:00:00 8.2 0 Calma 6 Oeste 0 -- -- 98
2018-10-25 02:00:00 8.8 3 Oeste 7 Noroeste 0 -- -- 98
2018-10-25 01:00:00 9.4 0 Calma 6 Oeste 0 -- -- 97
2018-10-25 00:00:00 10 2 Oeste 4 Noroeste 0 -- -- 97
2018-10-24 23:00:00 10.8 0 Calma 7 Noroeste 0 -- -- 94
2018-10-24 22:00:00 12 0 Calma 5 Norte 0 -- -- 93
2018-10-24 21:00:00 13.3 0 Calma 6 Oeste 0 -- -- 89
2018-10-24 20:00:00 15.2 0 Calma 6 Norte 0 -- -- 84
2018-10-24 19:00:00 18.8 3 Oeste 9 Sudoeste 0 -- -- 66
2018-10-24 18:00:00 23.1 3 Sudoeste 13 Sudeste 0 -- -- 51
2018-10-24 17:00:00 25.4 6 Sur 18 Sur 0 -- -- 42
2018-10-24 16:00:00 26.9 5 Sur 20 Sur 0 -- -- 36
2018-10-24 15:00:00 27 5 Sur 15 Sur 0 -- -- 34
2018-10-24 14:00:00 25.8 4 Oeste 8 Sudoeste 0 -- -- 48
2018-10-24 13:00:00 21.8 0 Calma 10 Sur 0 -- -- 59
2018-10-24 12:00:00 19.4 3 Sudeste 10 Oeste 0 -- -- 63
2018-10-24 11:00:00 14.6 6 Oeste 14 Oeste 0 -- -- 76
2018-10-24 10:00:00 10.1 0 Calma 9 Oeste 0 -- -- 93
2018-10-24 09:00:00 6 2 Sudoeste 9 Noroeste 0 -- -- 99
2018-10-24 08:00:00 5.7 2 Oeste 9 Sudoeste 0 -- -- 99
2018-10-24 07:00:00 5.9 4 Oeste 8 Noroeste 0 -- -- 99
2018-10-24 06:00:00 6.1 2 Sur 6 Noroeste 0 -- -- 99
2018-10-24 05:00:00 6.4 5 Oeste 13 Oeste 0 -- -- 99
2018-10-24 04:00:00 6.3 3 Oeste 9 Noroeste 0 -- -- 99
2018-10-24 03:00:00 6.8 0 Calma 8 Noroeste 0 -- -- 99
2018-10-24 02:00:00 7.3 4 Oeste 8 Oeste 0 -- -- 99
2018-10-24 01:00:00 7.7 0 Calma 6 Sudoeste 0 -- -- 98
2018-10-24 00:00:00 8.5 0 Calma 6 Oeste 0 -- -- 98
2018-10-23 23:00:00 9.3 2 Noroeste 5 Nordeste 0 -- -- 97
2018-10-23 22:00:00 10.2 0 Calma 6 Oeste 0 -- -- 95
2018-10-23 21:00:00 11.3 0 Calma 5 Noroeste 0 -- -- 94
2018-10-23 20:00:00 13.2 4 Oeste 8 Oeste 0 -- -- 85
2018-10-23 19:00:00 15.3 5 Oeste 11 Oeste 0 -- -- 74
2018-10-23 18:00:00 19 3 Sudoeste 6 Sudoeste 0 -- -- 63
2018-10-23 17:00:00 20 3 Sudeste 15 Este 0 -- -- 57
2018-10-23 16:00:00 22.6 7 Este 14 Sudeste 0 -- -- 51
2018-10-23 15:00:00 19.9 3 Sudeste 5 Sudoeste 0 -- -- 62
2018-10-23 14:00:00 20.3 3 Sudeste 5 Sudeste 0 -- -- 65
2018-10-23 13:00:00 18.6 3 Sur 5 Sudoeste 0 -- -- 73
2018-10-23 12:00:00 16.9 2 Sur 5 Sudeste 0 -- -- 79
2018-10-23 11:00:00 14.2 0 Calma 4 Sudoeste 0 -- -- 99
2018-10-23 10:00:00 9.6 3 Noroeste 6 Oeste 0 -- -- 100
2018-10-23 09:00:00 8.5 4 Oeste 6 Oeste 0.2 -- -- 100
2018-10-23 08:00:00 8.9 0 Calma 4 Oeste 0 -- -- 100
2018-10-23 07:00:00 9.3 0 Calma 6 Oeste 0 -- -- 100
2018-10-23 06:00:00 9.7 4 Oeste 9 Sudoeste 0 -- -- 100
2018-10-23 05:00:00 10.1 0 Calma 4 Sudoeste 0 -- -- 100
2018-10-23 04:00:00 10.5 0 Calma 4 Oeste 0 -- -- 100
2018-10-23 03:00:00 10.8 2 Oeste 6 Oeste 0 -- -- 100
2018-10-23 02:00:00 11.2 2 Noroeste 5 Oeste 0 -- -- 100
2018-10-23 01:00:00 11.5 0 Calma 5 Oeste 0 -- -- 99
2018-10-23 00:00:00 12.2 0 Calma 5 Norte 0 -- -- 98
2018-10-22 23:00:00 13.2 0 Calma 3 Sudoeste 0 -- -- 97
2018-10-22 22:00:00 13.6 0 Calma 7 Noroeste 0 -- -- 97
2018-10-22 21:00:00 14 3 Oeste 5 Nordeste 0 -- -- 95
2018-10-22 20:00:00 14.9 0 Calma 4 Norte 0 -- -- 93
2018-10-22 19:00:00 16.5 0 Calma 4 Oeste 0 -- -- 87
2018-10-22 18:00:00 19.1 3 Sudeste 12 Nordeste 0 -- -- 76
2018-10-22 17:00:00 20.8 7 Este 20 Nordeste 0 -- -- 68
2018-10-22 16:00:00 21.5 9 Este 18 Este 0 -- -- 61
2018-10-22 15:00:00 21.3 6 Este 13 Este 0 -- -- 63
2018-10-22 14:00:00 21.2 5 Sudeste 12 Este 0 -- -- 62
2018-10-22 13:00:00 18.6 3 Sudeste 5 Sudeste 0 -- -- 72
2018-10-22 12:00:00 17.7 2 Sur 4 Sur 0 -- -- 76
2018-10-22 11:00:00 15.8 0 Calma 3 Sur 0 -- -- 85
2018-10-22 10:00:00 11.1 0 Calma 5 Oeste 0 -- -- 100
2018-10-22 09:00:00 7.9 2 Oeste 4 Noroeste 0 -- -- 100
2018-10-22 08:00:00 8 0 Calma 5 Noroeste 0 -- -- 100
2018-10-22 07:00:00 8.3 3 Noroeste 8 Oeste 0 -- -- 100
2018-10-22 06:00:00 8.9 3 Oeste 12 Noroeste 0 -- -- 100
2018-10-22 05:00:00 8.9 3 Oeste 5 Sudoeste 0 -- -- 100
2018-10-22 04:00:00 9.4 0 Calma 3 Noroeste 0 -- -- 100
2018-10-22 03:00:00 10.1 0 Calma 3 Sudoeste 0 -- -- 100
2018-10-22 02:00:00 10.8 0 Calma 4 Sudoeste 0 -- -- 99
2018-10-22 01:00:00 11.7 2 Oeste 4 Oeste 0 -- -- 99
2018-10-22 00:00:00 12.1 0 Calma 3 Sur 0 -- -- 98
2018-10-21 23:00:00 13.1 0 Calma 8 Oeste 0 -- -- 97
2018-10-21 22:00:00 13.9 0 Calma 4 Oeste 0 -- -- 97
2018-10-21 21:00:00 15 0 Calma 4 Norte 0 -- -- 95
2018-10-21 20:00:00 16.6 2 Oeste 8 Sudoeste 0 -- -- 90
2018-10-21 19:00:00 18.5 4 Sudoeste 10 Oeste 0 -- -- 84
2018-10-21 18:00:00 22 2 Sur 15 Sudeste 0 -- -- 71
2018-10-21 17:00:00 23.4 8 Sudeste 17 Sudeste 0 -- -- 65
2018-10-21 16:00:00 23.3 3 Sudeste 6 Sudeste 0 -- -- 64
2018-10-21 15:00:00 22.2 2 Sur 4 Sur 0 -- -- 69
2018-10-21 14:00:00 22.4 2 Sur 4 Sudeste 0 -- -- 66
2018-10-21 13:00:00 20.6 2 Sur 5 Oeste 0 -- -- 74
2018-10-21 12:00:00 18.8 2 Sudeste 5 Sudoeste 0 -- -- 77
2018-10-21 11:00:00 15.8 2 Sudoeste 4 Oeste 0 -- -- 99
2018-10-21 10:00:00 11.6 0 Calma 3 Noroeste 0 -- -- 100
2018-10-21 09:00:00 10 0 Calma 4 Oeste 0 -- -- 100
2018-10-21 08:00:00 9.9 0 Calma 3 Noroeste 0.2 -- -- 100
2018-10-21 07:00:00 10.1 0 Calma 3 Noroeste 0 -- -- 100
2018-10-21 06:00:00 10.4 0 Calma 2 Oeste 0 -- -- 100
2018-10-21 05:00:00 10.7 2 Noroeste 4 Oeste 0 -- -- 100
2018-10-21 04:00:00 11.1 0 Calma 4 Oeste 0 -- -- 100
2018-10-21 03:00:00 11.3 3 Oeste 5 Oeste 0 -- -- 100
2018-10-21 02:00:00 11.8 0 Calma 4 Noroeste 0 -- -- 99
2018-10-21 01:00:00 12.4 0 Calma 5 Oeste 0 -- -- 99
2018-10-21 00:00:00 13 0 Calma 4 Sudoeste 0 -- -- 98
2018-10-20 23:00:00 13.7 0 Calma 5 Norte 0 -- -- 98
2018-10-20 22:00:00 14.3 2 Sudoeste 4 Oeste 0 -- -- 98
2018-10-20 21:00:00 14.7 0 Calma 4 Oeste 0 -- -- 96
2018-10-20 20:00:00 15.6 2 Oeste 5 Oeste 0 -- -- 93
2018-10-20 19:00:00 17.5 3 Sudoeste 8 Sudeste 0 -- -- 86
2018-10-20 18:00:00 19.4 3 Sudeste 6 Este 0 -- -- 80
2018-10-20 17:00:00 20.9 2 Sudeste 12 Este 0 -- -- 77
2018-10-20 16:00:00 21.4 7 Este 14 Nordeste 0 -- -- 71
2018-10-20 15:00:00 20.2 2 Sur 6 Norte 0 -- -- 81
2018-10-20 14:00:00 21.9 0 Calma 7 Oeste 0 -- -- 65
2018-10-20 13:00:00 18.9 3 Noroeste 8 Oeste 0 -- -- 78
2018-10-20 12:00:00 16.7 5 Oeste 8 Oeste 0 -- -- 95
2018-10-20 11:00:00 15.2 0 Calma 6 Este 0 -- -- 100
2018-10-20 10:00:00 14.3 3 Noroeste 4 Noroeste 0.2 -- -- 100
2018-10-20 09:00:00 13.9 0 Calma 4 Noroeste 0 -- -- 100
2018-10-20 08:00:00 14.1 0 Calma 4 Sudeste 0 -- -- 100
2018-10-20 07:00:00 14.1 0 Calma 7 Oeste 0 -- -- 100
2018-10-20 06:00:00 13.9 0 Calma 5 Sudoeste 0 -- -- 100
2018-10-20 05:00:00 14 0 Calma 8 Sudoeste 0 -- -- 100
2018-10-20 04:00:00 14.2 4 Sudoeste 7 Sudoeste 0 -- -- 100
2018-10-20 03:00:00 14.5 0 Calma 5 Oeste 0 -- -- 100
2018-10-20 02:00:00 14.6 0 Calma 3 Sudoeste 0 -- -- 99
2018-10-20 01:00:00 14.8 0 Calma 8 Oeste 0 -- -- 99
2018-10-20 00:00:00 15.2 3 Sudoeste 6 Sudoeste 0 -- -- 99
2018-10-19 23:00:00 15.7 2 Este 6 Sudoeste 0 -- -- 99
2018-10-19 22:00:00 15.8 0 Calma 5 Oeste 0 -- -- 98
2018-10-19 21:00:00 15.9 0 Calma 3 Nordeste 0 -- -- 97
2018-10-19 20:00:00 16.4 0 Calma 4 Sur 0.8 -- -- 94
2018-10-19 19:00:00 17.8 0 Calma 3 Sudoeste 0 -- -- 86
2018-10-19 18:00:00 19.3 2 Sudeste 12 Nordeste 0 -- -- 83
2018-10-19 17:00:00 20.2 3 Sudeste 10 Este 0 -- -- 79
2018-10-19 16:00:00 21 5 Este 12 Nordeste 0 -- -- 68
2018-10-19 15:00:00 20.5 3 Sudeste 7 Sudeste 0 -- -- 72
2018-10-19 14:00:00 19.7 4 Oeste 6 Oeste 0 -- -- 74
2018-10-19 13:00:00 18.7 2 Sur 8 Nordeste 0 -- -- 83
2018-10-19 12:00:00 19.1 2 Sur 6 Sudoeste 0 -- -- 77
2018-10-19 11:00:00 17.7 0 Calma 4 Norte 0 -- -- 86
2018-10-19 10:00:00 15.3 0 Calma 6 Oeste 0 -- -- 98
2018-10-19 09:00:00 14.4 0 Calma 5 Sudoeste 0 -- -- 99
2018-10-19 08:00:00 14.7 0 Calma 7 Noroeste 0 -- -- 99
2018-10-19 07:00:00 14.7 4 Oeste 8 Oeste 0 -- -- 99
2018-10-19 06:00:00 14.7 0 Calma 8 Oeste 0 -- -- 99
2018-10-19 05:00:00 14.7 0 Calma 6 Este 0 -- -- 99
2018-10-19 04:00:00 14.6 2 Noroeste 7 Nordeste 0 -- -- 99
2018-10-19 03:00:00 14.5 3 Nordeste 7 Oeste 0 -- -- 99
2018-10-19 02:00:00 14.9 3 Oeste 7 Oeste 0 -- -- 99
2018-10-19 01:00:00 14.9 2 Sudoeste 4 Sudoeste 0 -- -- 99
2018-10-19 00:00:00 14.9 0 Calma 5 Oeste 0 -- -- 99
2018-10-18 23:00:00 14.8 3 Oeste 6 Sudoeste 0 -- -- 99
2018-10-18 22:00:00 14.4 0 Calma 3 Norte 0 -- -- 98
2018-10-18 21:00:00 15 0 Calma 4 Sudeste 0 -- -- 96
2018-10-18 20:00:00 15.9 0 Calma 8 Oeste 0 -- -- 95
2018-10-18 19:00:00 16.4 0 Calma 5 Noroeste 0 -- -- 93
2018-10-18 18:00:00 17.4 0 Calma 13 Sudeste 0 -- -- 88
2018-10-18 17:00:00 18.1 7 Este 15 Sudeste 0 -- -- 85
2018-10-18 16:00:00 18.1 5 Este 12 Sudeste 0 -- -- 89
2018-10-18 15:00:00 17.2 0 Calma 9 Sudeste 0 -- -- 94
2018-10-18 14:00:00 16.6 0 Calma 4 Oeste 0.8 -- -- 97
2018-10-18 13:00:00 16.1 0 Calma 4 Norte 0 -- -- 98
2018-10-18 12:00:00 15.3 0 Calma 6 Sudoeste 0 -- -- 100
2018-10-18 11:00:00 14.6 0 Calma 5 Sudoeste 8.4 -- -- 100
2018-10-18 10:00:00 14.4 3 Oeste 5 Sudoeste 8 -- -- 100
2018-10-18 09:00:00 14.3 3 Oeste 8 Sudoeste 0.6 -- -- 100
2018-10-18 08:00:00 14.2 2 Oeste 4 Sudoeste 0.6 -- -- 100
2018-10-18 07:00:00 14.2 2 Nordeste 5 Sudoeste 0 -- -- 100
2018-10-18 06:00:00 14.1 0 Calma 4 Sudoeste 0 -- -- 100
2018-10-18 05:00:00 14.1 0 Calma 6 Sudoeste 0.2 -- -- 99
2018-10-18 04:00:00 13.9 0 Calma 3 Norte 0 -- -- 99
2018-10-18 03:00:00 14.3 0 Calma 6 Oeste 0 -- -- 99
2018-10-18 02:00:00 14.2 3 Sudoeste 6 Noroeste 0 -- -- 99
2018-10-18 01:00:00 14.7 0 Calma 5 Oeste 0 -- -- 99
2018-10-18 00:00:00 14.8 2 Sudoeste 5 Oeste 0 -- -- 99